Theta_e
340 340 339 338 339 339 336 333 336 338 339 339 337 336 338 339 339 340 341 342 343 342 342 342 342 342 343 342 341 339 338 337 336 336 336 336 335 335 333 333 332 333 334 332 331 332 333 333 331 329 327 324 322 322 320 317 315 314 313 311 310 311 311
340 340 339 338 339 340 336 332 335 338 340 339 338 337 338 338 338 340 341 341 342 342 341 342 343 342 342 342 342 339 339 338 337 336 335 335 335 335 335 334 334 334 334 334 332 331 330 332 332 329 327 324 322 322 321 318 315 315 314 313 311 310 311
339 340 340 339 339 340 336 332 333 336 339 340 339 338 338 338 338 339 340 341 342 343 342 342 343 342 342 343 342 340 339 339 338 336 335 335 335 335 336 335 335 335 335 334 333 332 330 330 331 328 325 323 322 321 322 320 317 315 315 314 312 311 311
339 339 341 340 340 341 338 334 332 333 337 340 340 339 338 339 338 338 339 341 342 342 343 343 342 342 342 343 343 341 340 339 339 338 336 336 335 335 336 335 335 335 335 334 333 333 331 329 331 329 324 323 322 322 322 322 320 317 316 315 313 311 311
340 339 341 341 340 342 341 337 335 333 335 338 339 339 339 339 339 338 339 340 341 342 342 343 342 342 341 342 343 342 341 340 339 338 337 336 336 336 335 335 336 335 335 334 333 333 332 330 330 329 325 324 323 322 322 322 321 320 318 316 314 311 312
341 339 340 341 341 341 342 340 338 336 336 338 339 339 339 339 339 339 339 340 340 341 341 342 342 341 341 342 343 342 341 340 339 338 337 337 336 335 336 336 335 335 335 334 333 333 331 330 328 328 327 326 323 322 323 322 321 321 320 318 316 312 312
341 340 340 341 342 341 342 341 339 338 337 338 339 339 339 338 338 339 339 340 340 341 341 342 341 341 341 341 342 342 341 340 339 338 337 337 336 335 335 335 335 335 334 334 333 332 330 330 329 328 328 329 326 323 322 323 322 320 320 320 318 314 312
341 340 340 341 342 341 342 342 341 339 338 338 338 338 339 338 338 338 339 340 340 341 342 341 341 341 341 341 342 342 341 340 339 339 338 337 336 335 335 335 335 335 334 333 333 332 331 330 330 329 330 332 331 326 321 321 321 320 320 320 318 315 313
342 342 341 341 343 342 342 342 342 341 339 338 338 338 338 338 338 338 339 340 340 341 342 342 341 341 341 341 342 341 341 340 340 339 338 337 336 335 334 335 335 335 334 333 333 332 331 331 330 330 330 330 333 332 325 322 320 319 320 320 317 315 314
342 343 342 342 342 343 343 342 343 342 341 340 339 338 338 338 338 339 339 340 341 340 341 342 341 341 341 341 341 341 341 340 340 339 338 337 336 336 335 336 335 334 334 333 333 332 331 332 331 330 331 329 330 333 330 327 323 319 319 319 316 314 314
343 343 343 343 342 343 343 343 343 343 342 341 340 339 340 339 339 340 340 341 341 341 341 342 342 341 341 341 341 341 341 340 340 339 338 338 337 336 337 337 335 334 333 333 332 332 332 332 331 330 331 330 329 330 329 329 328 321 319 319 317 315 315
345 344 344 344 343 343 344 344 343 343 343 342 341 340 341 341 340 340 340 341 341 341 341 341 342 341 341 341 341 341 341 340 340 339 338 338 337 337 337 336 334 333 333 332 332 333 332 332 332 331 331 330 329 329 327 327 328 323 318 318 317 315 315
345 345 345 345 344 344 344 344 344 344 343 343 342 341 342 341 341 341 341 341 341 342 341 341 342 342 341 341 341 341 340 340 339 339 339 338 337 336 336 334 334 333 333 333 333 333 332 332 332 331 331 330 329 329 326 323 323 321 317 316 316 314 313
347 346 346 345 345 345 345 344 344 344 344 344 343 342 342 342 342 341 341 341 341 341 341 341 341 342 341 341 341 340 340 339 339 339 338 338 336 335 334 333 333 332 332 333 333 332 332 331 332 331 330 330 328 328 326 322 320 317 314 313 313 312 312
348 348 347 346 346 346 346 345 344 344 344 344 344 343 343 342 342 342 341 341 341 341 341 341 342 342 342 341 341 340 339 338 338 338 337 336 335 334 334 333 332 331 331 331 331 331 330 330 331 331 330 329 328 327 325 322 319 317 313 311 310 310 310
348 348 348 348 347 346 346 346 345 345 344 345 345 344 344 343 342 342 342 341 341 341 342 341 342 342 342 342 341 340 339 338 338 337 336 335 335 334 333 332 332 331 331 331 330 329 329 330 330 330 330 329 327 325 324 321 319 317 314 310 309 310 310
348 349 349 348 348 347 347 346 346 346 345 345 345 344 344 343 343 343 342 342 341 341 341 341 342 342 342 342 341 339 339 338 337 336 336 335 334 333 332 331 331 331 332 332 331 330 330 329 329 328 328 327 326 325 322 319 317 317 315 311 309 309 309
349 350 349 349 349 348 347 346 346 346 346 345 345 345 344 344 343 343 342 342 342 341 341 341 342 342 342 342 341 340 339 338 337 336 335 334 334 333 332 331 330 330 331 331 330 330 329 328 327 326 326 324 323 323 321 317 316 317 316 313 310 309 308
350 350 349 349 349 348 348 347 346 346 346 345 345 345 345 344 343 343 343 342 342 341 341 341 342 342 342 342 341 340 339 338 337 335 335 334 333 332 332 331 330 330 330 329 329 328 328 326 325 325 324 322 321 320 318 316 315 316 316 315 313 310 309
349 349 349 349 349 349 348 347 347 346 346 346 345 345 344 344 344 343 342 342 341 342 341 341 341 342 342 342 341 340 338 338 336 335 334 334 333 332 331 331 330 330 329 329 328 328 327 326 325 324 322 320 319 318 316 314 314 315 314 315 314 312 311
348 348 349 349 349 349 349 348 347 346 346 346 346 345 345 344 344 343 343 342 342 341 341 341 341 341 341 341 341 339 338 337 336 335 334 333 332 332 331 330 330 330 329 329 328 328 327 326 325 323 320 318 317 315 313 313 314 314 314 315 315 313 311
346 346 347 348 349 349 349 348 348 347 347 346 345 345 345 344 344 343 343 342 342 341 341 340 340 340 340 340 340 339 338 337 336 335 334 333 332 332 331 330 330 329 329 328 327 327 326 325 325 322 318 316 314 312 312 312 313 314 314 314 314 312 310
343 341 342 346 348 349 349 349 348 348 347 347 346 345 345 344 344 343 342 342 341 341 341 340 340 340 340 340 340 339 337 336 335 334 333 333 332 331 331 330 329 328 328 327 326 325 325 324 324 322 318 315 312 310 311 313 313 313 312 311 311 310 308
339 338 340 345 348 349 348 348 348 348 348 347 346 345 345 344 344 343 342 342 341 341 341 340 340 339 340 340 339 338 337 336 335 334 333 333 332 331 330 329 329 328 327 325 324 324 323 322 322 321 318 315 311 310 311 312 312 312 310 309 309 309 308
339 341 343 347 348 349 348 348 348 348 348 348 347 345 345 344 344 343 342 342 341 341 341 340 340 339 339 340 340 338 337 336 335 334 333 332 331 331 330 329 328 327 325 324 323 322 322 321 320 318 316 313 311 310 310 311 312 311 309 308 308 309 308
342 345 347 348 348 348 348 348 348 348 348 348 347 346 345 344 344 343 342 342 342 341 341 340 340 339 339 339 339 339 337 336 335 333 332 332 331 330 330 328 327 325 324 322 322 321 321 320 318 315 313 311 310 310 311 311 312 310 308 307 308 308 308
344 346 348 349 348 347 347 347 348 348 348 348 347 346 345 344 344 343 343 342 342 341 341 341 340 340 339 339 339 339 337 336 335 333 332 331 330 330 329 327 326 324 322 321 321 320 319 318 315 313 312 311 310 310 311 310 309 308 307 307 307 307 308
343 346 349 349 348 348 347 347 347 348 348 348 347 346 345 345 344 343 343 342 342 341 341 340 341 340 339 338 339 338 337 335 335 333 332 331 330 329 328 327 326 323 321 320 320 319 318 316 314 313 311 311 310 310 310 308 307 307 308 307 307 307 308
337 341 346 348 349 348 347 346 347 347 347 348 347 347 345 345 344 343 343 343 342 342 341 341 341 340 339 338 338 338 336 335 334 333 331 330 329 329 328 327 325 322 320 319 319 319 318 316 314 312 311 311 310 309 309 307 307 308 309 307 307 307 308
333 335 340 344 347 348 347 346 346 346 347 347 347 347 346 345 344 344 343 343 342 342 342 341 341 340 340 339 338 337 335 334 333 332 331 330 329 328 326 326 324 322 320 319 318 317 317 315 313 312 310 310 309 308 308 307 307 308 309 307 307 308 308
333 334 336 339 343 345 346 346 346 346 346 347 347 347 346 345 344 344 343 343 343 342 342 341 341 341 340 339 337 336 335 333 332 331 330 329 328 327 326 325 324 322 319 318 317 316 315 314 313 311 310 309 308 307 307 306 307 307 308 307 307 308 308
333 333 335 336 337 340 343 346 346 345 346 346 347 347 346 345 344 344 343 343 343 342 342 342 341 341 340 339 337 336 334 332 331 330 329 327 326 325 325 323 322 321 319 318 317 316 314 313 312 311 309 308 307 306 306 306 306 306 307 306 307 307 308
333 333 334 334 334 335 339 343 344 345 345 346 345 345 344 344 344 344 343 343 343 342 342 342 341 341 340 340 337 335 334 332 330 329 328 326 324 323 322 321 320 319 319 318 316 315 314 313 312 311 309 307 307 306 306 305 305 305 306 306 306 306 306
334 333 332 333 335 335 336 338 341 343 345 345 343 342 342 343 344 344 343 343 342 342 341 341 341 341 340 340 338 335 333 332 331 329 327 325 324 322 321 320 318 318 318 318 316 315 314 313 312 311 309 308 307 306 305 304 304 304 304 305 305 305 304
335 333 332 332 333 334 334 336 338 340 342 344 342 337 336 337 340 342 343 343 342 342 342 341 341 340 340 339 337 335 334 332 331 329 327 325 323 322 321 319 318 317 318 317 316 315 314 313 311 310 309 309 307 305 303 302 302 302 303 303 303 303 302
335 334 333 332 332 333 334 335 336 337 338 340 339 334 333 334 336 339 341 342 342 341 341 341 340 340 340 338 337 335 334 332 331 329 327 326 323 321 320 319 318 317 318 317 316 315 314 313 311 309 308 307 305 303 301 300 300 301 300 300 301 301 301
334 333 333 332 331 332 334 335 335 334 332 333 333 333 334 335 334 335 338 340 341 341 340 339 338 339 339 338 336 334 333 332 331 330 328 326 324 322 320 319 318 318 318 317 316 315 314 312 310 308 307 305 303 302 300 300 301 301 300 301 303 303 302
Wind_Speed
30 29 31 32 28 27 33 34 31 32 34 33 32 32 33 31 30 29 28 28 26 26 27 27 27 27 26 26 24 24 24 25 27 27 27 28 27 25 25 23 19 14 10 9 11 9 5 3 10 14 18 21 23 22 21 24 24 20 18 21 22 24 24
30 28 29 32 29 27 33 35 33 32 33 34 33 32 33 32 31 30 29 29 28 27 28 28 28 27 26 27 27 26 27 27 27 27 27 30 31 28 25 26 24 20 16 13 13 12 8 5 5 6 12 16 20 24 24 22 24 21 18 22 25 25 25
32 28 27 31 30 28 32 35 34 33 33 34 34 33 33 33 33 32 30 30 31 29 28 29 29 28 27 28 28 28 29 28 28 28 26 28 32 32 28 26 25 20 16 14 14 13 11 9 6 6 12 14 14 22 27 25 25 23 21 23 26 26 25
34 32 29 30 31 30 33 35 36 35 34 34 35 34 34 34 34 34 32 31 32 31 29 29 29 29 28 28 28 29 30 29 28 28 26 26 29 32 30 28 26 24 19 16 16 17 12 9 6 5 13 18 17 22 27 28 28 25 22 23 27 28 24
35 35 33 32 33 32 34 35 35 35 35 34 35 36 36 35 35 35 34 33 33 33 32 29 29 30 29 29 29 30 30 30 29 28 27 27 27 30 31 29 28 27 25 22 21 20 17 15 11 6 10 16 16 19 24 26 27 28 24 22 26 29 24
37 37 36 34 34 33 33 34 36 36 36 36 37 38 39 38 36 35 35 35 34 34 34 32 29 30 30 30 30 31 31 31 30 29 30 29 28 29 30 30 28 26 26 25 22 20 19 18 15 10 11 14 13 15 19 21 24 27 27 25 24 27 26
38 38 37 36 36 36 34 35 37 38 38 39 40 40 40 39 38 37 36 36 34 32 32 33 31 30 31 31 31 32 32 32 32 31 31 30 29 29 28 28 28 27 26 24 21 19 19 17 16 12 10 11 10 10 13 18 22 22 24 27 26 26 26
39 39 39 37 37 38 37 36 37 38 39 40 40 40 39 39 39 38 36 36 35 33 31 32 31 31 32 32 32 32 32 32 33 33 32 30 30 29 28 27 27 26 26 24 21 19 18 17 16 15 11 7 4 2 6 13 17 20 24 26 26 27 25
39 38 38 37 37 39 40 38 37 39 40 39 38 38 39 39 40 38 37 36 36 34 32 31 32 32 31 32 33 31 31 32 33 33 32 31 30 30 29 28 27 27 26 26 24 21 20 18 17 16 14 12 7 2 2 5 8 15 23 22 22 27 25
39 38 38 39 39 39 40 40 39 38 38 38 38 38 39 40 40 39 38 37 36 36 33 32 33 34 32 32 33 32 32 32 33 33 32 31 31 30 29 28 28 27 26 25 25 24 22 21 20 17 15 14 12 6 3 4 5 11 21 23 23 26 25
39 39 39 40 40 37 38 40 39 38 39 39 38 38 39 40 40 40 38 37 36 37 36 33 32 34 34 32 33 33 32 33 33 33 32 32 31 29 29 28 27 26 25 24 24 23 22 22 22 20 17 16 15 12 8 5 6 12 19 24 25 24 26
39 40 39 38 38 37 37 39 40 41 40 40 39 38 38 40 41 40 39 37 37 37 37 35 33 34 35 34 33 33 32 33 34 34 33 32 31 29 28 26 25 24 22 22 22 22 21 21 22 21 20 19 18 16 13 7 5 8 12 22 26 25 27
39 40 40 38 37 37 38 40 41 41 40 40 40 39 39 40 41 41 40 37 37 37 37 37 35 34 35 35 35 34 34 34 34 34 33 32 31 29 28 26 25 23 22 22 24 24 22 21 21 21 21 21 20 17 15 10 7 4 5 17 26 25 27
38 39 40 39 38 37 38 40 41 41 40 40 41 40 40 40 41 41 40 38 37 37 37 37 36 35 35 35 35 35 35 35 35 34 33 32 30 29 28 27 26 24 24 24 25 25 24 22 22 22 21 21 21 18 16 13 10 5 3 10 20 24 27
37 38 39 39 39 38 37 39 41 40 40 40 41 42 42 41 40 40 40 39 38 37 37 38 37 36 36 35 35 35 36 36 35 34 33 32 31 30 29 28 27 25 24 24 24 25 25 24 23 23 22 23 22 20 19 16 12 8 7 10 17 22 25
37 37 37 38 40 40 39 39 40 40 41 41 41 42 42 41 40 39 39 40 39 37 37 38 38 37 37 36 36 36 36 37 36 35 34 34 33 32 30 28 27 25 25 25 25 25 25 25 24 24 24 24 23 21 19 17 14 11 11 12 16 22 24
36 37 37 38 39 41 41 40 40 40 41 41 41 41 41 41 40 39 40 40 40 39 38 38 38 38 38 38 37 37 36 36 36 37 36 36 35 33 31 29 27 26 26 27 28 27 26 24 24 24 24 23 22 20 18 17 16 14 14 16 18 21 23
36 38 39 39 39 41 42 42 41 40 41 41 41 41 41 41 40 40 42 42 41 40 39 38 38 39 39 38 38 37 37 37 36 37 37 37 36 34 32 31 29 27 26 27 27 27 26 25 24 24 22 21 20 19 18 17 17 17 17 18 19 20 21
38 39 40 40 40 41 42 43 42 41 41 41 41 41 41 42 42 42 43 43 41 41 40 39 39 39 39 39 38 37 37 38 37 37 37 37 36 35 33 32 31 30 29 27 26 25 25 25 24 22 21 20 18 18 19 17 17 19 19 19 20 20 20
40 40 40 41 41 42 42 42 41 41 41 41 41 41 41 42 43 44 44 43 42 42 41 39 39 39 39 39 39 38 38 38 38 37 37 36 35 35 34 33 32 32 32 31 29 26 25 25 24 22 21 20 18 19 20 19 18 20 20 19 21 20 19
43 42 42 42 43 43 43 41 40 40 41 41 42 42 43 43 43 43 43 42 42 42 41 41 41 40 40 40 40 39 38 38 38 37 36 36 35 34 33 33 33 32 32 33 32 30 28 27 25 23 21 21 21 22 22 20 19 20 20 20 21 19 17
42 41 41 41 42 44 43 41 41 41 40 41 42 43 44 44 43 41 42 42 41 41 42 43 43 43 41 41 41 40 39 39 39 37 36 35 36 35 34 33 33 31 30 30 30 29 29 29 28 26 24 24 24 23 22 22 21 21 21 19 19 18 17
40 38 37 39 41 42 42 41 41 40 41 42 43 43 43 43 42 42 42 42 41 42 44 45 46 45 44 42 41 40 39 39 39 38 36 35 35 35 35 34 32 30 29 28 27 27 28 29 29 28 27 26 26 25 25 24 23 23 23 20 19 19 19
39 38 37 38 39 40 40 40 40 40 41 42 42 42 42 42 43 44 44 43 42 43 45 47 47 46 45 45 44 41 40 39 39 39 37 35 35 35 34 34 31 30 28 27 27 27 28 28 28 27 27 27 27 27 27 27 26 24 23 21 20 21 22
38 38 38 38 38 39 38 38 39 40 41 42 42 42 42 43 43 44 44 43 43 44 46 47 47 46 46 47 46 44 41 40 38 38 38 37 36 35 34 32 31 29 29 28 28 28 28 27 27 26 27 27 27 27 27 27 27 25 24 23 22 22 24
37 37 37 38 39 38 38 38 39 40 41 42 42 42 42 44 44 44 44 43 44 46 46 47 47 47 46 47 48 46 42 41 40 39 39 38 37 36 35 33 31 30 29 29 29 29 29 28 27 27 27 27 26 26 25 25 25 25 24 25 24 24 24
39 38 37 37 38 37 38 38 39 40 42 42 42 42 42 43 44 44 44 44 45 46 47 47 48 49 47 47 50 48 43 42 41 40 39 39 38 37 37 36 34 32 31 31 31 31 31 30 29 28 28 28 27 26 25 24 23 22 23 24 24 23 23
38 40 39 38 38 38 38 39 39 40 40 41 42 43 43 44 44 45 45 45 45 44 46 47 48 49 49 48 51 49 44 42 42 40 40 40 39 39 39 38 36 34 33 34 33 33 33 32 31 30 29 29 28 27 26 24 23 22 23 23 21 19 20
31 34 37 38 38 38 38 38 39 40 40 41 42 43 43 44 44 45 46 46 44 43 45 46 47 49 49 49 51 50 44 42 42 41 40 40 39 40 40 39 38 36 36 36 35 35 34 33 32 32 31 29 28 27 26 24 22 21 21 22 20 16 16
33 32 32 34 37 39 40 39 39 40 39 39 40 41 42 43 44 45 46 45 44 44 45 46 47 49 49 50 51 49 44 42 41 40 41 40 39 39 39 40 39 37 37 37 36 36 35 35 34 33 32 30 28 27 26 24 23 20 19 20 19 16 15
38 37 33 32 34 36 37 38 39 40 41 40 40 42 42 42 43 45 46 47 47 46 45 46 48 49 49 51 53 50 44 40 39 39 39 39 39 39 39 40 40 39 38 38 38 37 37 36 36 35 34 31 29 28 27 26 24 22 19 19 19 17 16
36 41 40 36 36 37 38 39 38 39 40 41 41 41 41 41 41 43 45 48 49 47 45 45 47 48 49 51 53 50 44 40 38 38 37 37 37 38 39 40 40 40 39 39 38 38 38 38 38 37 36 33 30 30 31 30 28 27 24 22 21 19 18
26 36 42 43 42 39 38 38 39 39 39 40 40 39 40 40 40 41 42 45 46 46 44 44 46 49 50 51 54 51 45 42 40 38 37 36 35 36 38 39 40 40 39 38 38 38 39 39 39 38 38 36 35 34 34 33 31 30 28 26 24 22 20
21 25 33 38 41 41 38 35 35 35 36 37 35 35 36 37 38 39 41 42 43 44 45 46 47 48 50 52 55 53 47 45 44 40 37 36 36 37 37 38 39 40 38 38 38 38 39 39 39 39 39 39 38 37 35 33 31 30 29 27 26 24 22
22 24 27 29 32 37 41 39 36 34 33 33 32 31 32 33 34 37 39 40 42 42 44 47 48 49 50 53 57 57 51 47 45 41 38 36 36 37 39 39 41 41 39 38 38 39 39 39 39 40 39 38 37 36 35 34 31 30 29 27 25 24 24
22 26 30 31 29 29 32 34 33 30 28 27 28 31 33 33 32 33 35 37 40 41 42 46 47 49 51 53 57 60 55 48 46 44 41 39 38 37 38 40 41 42 41 40 40 39 39 39 40 40 38 36 35 34 34 33 31 30 29 27 25 25 26
21 23 28 33 32 29 29 31 30 28 26 25 23 25 29 30 28 27 30 32 35 36 39 43 46 48 52 54 58 61 56 49 48 46 42 40 39 39 40 41 42 43 42 42 41 40 39 39 40 39 36 34 33 33 32 32 31 29 28 27 26 27 27
Wind_Direction
198 200 203 207 211 208 201 200 203 202 201 201 201 202 204 207 208 208 207 204 204 206 204 204 205 205 207 209 210 210 208 208 206 202 199 197 200 205 209 213 216 226 231 201 190 184 150 199 225 225 224 219 216 219 223 224 222 224 226 224 222 219 218
200 198 200 204 209 206 199 199 201 201 201 201 202 203 205 207 209 211 209 205 204 206 206 206 206 205 207 207 207 207 206 208 208 205 203 201 203 205 206 211 221 229 229 222 212 196 177 179 204 221 220 212 215 221 224 224 222 224 227 226 223 218 218
199 196 197 201 206 204 198 198 201 201 200 201 203 204 206 208 209 212 212 207 204 206 207 206 205 204 207 209 207 206 206 207 208 208 211 210 208 208 207 209 215 219 218 222 221 207 192 188 192 209 207 198 205 220 223 222 220 221 225 227 223 220 220
196 193 194 199 204 203 199 199 201 202 202 203 204 206 208 209 210 212 214 210 206 205 206 206 205 204 206 209 208 206 206 208 210 212 216 217 213 211 211 212 214 214 211 211 216 215 208 196 191 198 206 204 205 216 222 223 221 220 222 224 222 221 222
194 192 194 199 203 203 202 201 200 201 203 205 206 208 209 210 211 211 212 212 209 207 206 206 206 205 206 207 207 205 205 207 210 212 212 213 213 212 212 215 217 219 218 218 218 218 219 216 207 194 203 207 211 223 227 224 220 220 223 222 220 221 221
195 195 197 199 204 206 204 201 200 199 201 205 207 209 210 210 211 211 211 211 211 210 208 207 206 205 206 206 206 206 205 206 207 208 209 210 212 212 213 215 216 218 221 223 225 225 226 223 215 211 211 206 209 223 227 225 221 221 225 226 222 219 217
195 197 200 201 204 207 206 202 201 200 201 204 206 208 209 209 211 212 212 210 210 212 211 209 207 207 207 206 207 207 207 207 207 208 210 211 212 213 213 213 214 216 219 221 226 227 224 220 214 215 216 210 210 207 207 216 217 215 220 225 225 220 216
196 198 201 204 204 205 207 205 203 202 203 205 207 208 208 209 210 212 214 212 210 211 213 211 208 207 207 206 206 207 208 208 208 209 211 212 213 213 214 215 215 216 219 219 222 224 223 224 221 218 216 214 229 207 182 202 210 212 217 221 223 219 215
197 198 201 206 207 206 207 206 206 206 207 208 208 209 209 209 210 211 213 213 211 211 213 213 211 208 206 205 205 207 208 208 208 208 211 212 213 214 215 217 218 219 221 222 224 226 226 230 232 229 224 214 211 224 199 201 211 220 221 217 214 216 217
198 199 202 208 210 208 206 207 208 208 208 209 209 209 209 210 211 211 212 212 212 212 212 214 213 211 209 206 205 206 207 208 207 208 210 211 213 215 216 218 220 221 223 224 227 229 228 232 233 230 227 219 210 196 182 208 223 226 224 218 210 209 214
199 201 204 209 211 210 207 207 208 208 209 209 209 208 209 209 210 211 211 212 212 212 212 212 213 212 211 208 207 208 209 208 207 207 210 212 213 214 216 218 220 222 225 226 228 228 228 231 231 228 229 229 225 215 203 206 223 227 225 219 213 208 208
200 204 207 210 211 211 209 208 207 208 209 209 208 208 208 208 209 210 211 212 212 211 211 212 213 212 211 210 208 208 209 209 207 207 209 212 213 214 216 218 219 221 222 223 223 223 224 226 226 227 231 234 234 231 224 217 217 230 224 212 210 210 207
202 205 208 211 212 212 211 209 208 208 209 208 208 208 208 209 209 210 211 212 211 211 210 212 213 213 211 211 209 208 208 208 207 207 209 212 214 215 216 216 217 218 219 219 219 221 222 223 224 228 232 236 238 235 230 223 210 215 217 205 202 202 203
204 206 209 211 213 213 213 212 210 208 208 207 207 208 209 210 210 210 210 211 212 211 211 211 212 212 211 210 210 209 208 207 207 208 209 211 213 213 212 212 215 219 221 221 222 224 225 224 226 230 234 237 238 234 228 223 211 186 155 186 190 191 196
206 208 209 210 212 213 213 213 211 209 207 207 207 207 209 210 210 210 210 212 212 211 211 211 211 211 211 210 210 209 208 207 206 206 207 208 209 208 209 211 215 220 222 224 226 229 229 225 227 232 232 231 231 229 227 224 214 188 153 158 174 181 189
209 210 210 210 211 212 213 213 212 210 208 207 207 208 209 210 210 210 211 212 213 212 211 210 210 210 211 211 210 209 208 208 206 205 205 205 204 204 207 211 216 219 222 225 227 228 228 227 229 229 226 222 221 222 225 226 220 194 165 160 169 174 180
210 212 213 212 212 212 213 214 213 211 209 208 207 208 209 210 209 209 211 212 212 212 211 210 209 210 210 211 211 209 208 208 208 207 206 205 204 206 209 212 215 217 219 223 226 227 226 223 221 218 217 217 219 221 223 226 226 209 180 170 175 181 182
210 212 213 214 213 213 213 214 214 212 210 208 208 208 208 208 208 208 210 212 212 212 211 210 209 210 210 211 212 211 209 207 208 207 206 206 207 209 211 213 214 214 214 216 219 221 219 215 213 214 216 218 220 224 225 224 224 218 201 186 183 189 192
211 212 213 214 214 214 214 214 214 212 211 209 209 208 207 207 208 209 211 213 213 212 211 210 210 210 210 211 211 211 210 208 208 207 207 207 209 211 212 214 215 215 214 214 214 214 213 213 214 215 217 218 218 221 225 224 219 215 212 204 194 193 198
212 213 213 214 214 215 215 215 214 213 212 210 209 208 207 207 209 209 211 213 214 213 211 210 211 211 210 210 211 210 209 208 208 208 208 209 210 213 215 216 217 217 218 220 221 220 217 217 218 218 219 217 214 217 221 219 211 206 207 205 198 197 202
212 213 214 214 214 214 214 214 214 214 214 212 210 209 208 209 209 209 210 212 214 213 211 210 211 212 211 210 210 209 208 207 207 209 210 211 212 214 216 218 219 220 221 222 225 226 225 223 221 218 217 213 210 213 214 208 201 198 198 198 198 200 201
213 214 214 215 215 214 213 212 213 214 214 213 212 211 211 210 209 209 210 212 214 213 211 210 211 211 211 209 207 207 207 206 206 208 209 210 212 214 215 217 218 220 221 221 224 227 227 226 221 215 210 208 208 210 204 197 193 190 188 190 196 198 192
216 217 217 218 217 215 212 211 211 213 215 214 213 212 211 210 209 209 210 212 213 212 211 211 212 212 211 208 205 204 205 205 206 207 207 207 209 211 213 215 217 220 222 223 224 224 222 221 219 216 213 210 210 207 199 192 191 190 189 190 194 194 188
220 220 220 220 219 217 213 210 210 212 215 215 214 213 211 210 210 210 211 212 212 211 211 212 212 212 212 209 205 203 203 203 205 206 206 206 207 208 210 214 217 219 220 221 221 220 218 216 216 217 217 216 214 212 205 198 195 195 197 199 200 197 194
220 221 219 219 220 219 215 211 210 212 214 216 215 213 211 211 211 211 212 212 212 211 212 212 211 211 212 209 205 203 202 202 204 206 206 206 206 206 209 212 214 214 215 216 215 214 213 213 214 213 213 214 215 215 214 210 206 204 205 204 203 202 200
219 220 218 217 219 218 216 213 211 211 213 215 215 214 212 211 211 212 212 212 213 213 213 212 210 210 212 210 206 203 202 202 204 206 206 206 206 207 208 209 208 208 210 212 211 210 208 208 208 207 207 209 210 211 213 214 214 214 212 208 206 207 206
217 218 217 216 217 217 216 215 213 212 212 213 214 214 213 212 211 212 212 213 213 214 214 214 212 212 213 211 207 204 201 201 204 206 206 206 206 206 206 206 205 204 205 207 208 207 205 203 201 201 202 203 204 206 207 209 211 213 212 211 213 214 213
219 216 216 215 215 216 216 216 215 214 213 213 213 214 213 213 212 212 213 214 214 214 215 215 213 213 214 211 206 203 201 201 203 205 206 205 205 205 206 207 207 205 204 204 206 205 203 201 198 198 198 199 200 203 205 208 209 209 210 211 214 215 214
235 225 218 214 213 214 215 215 214 214 214 214 214 215 214 214 213 212 213 214 215 216 216 216 214 212 212 210 204 200 200 200 201 203 203 203 204 205 205 207 208 206 204 204 204 205 203 201 198 197 197 196 198 200 202 206 206 206 209 210 209 209 207
244 240 230 220 215 214 214 214 214 213 214 214 214 214 215 214 214 213 214 214 214 216 217 216 214 212 211 207 201 198 198 199 199 201 202 201 202 202 204 206 207 206 205 204 203 203 203 201 199 198 196 194 193 194 197 200 200 200 205 207 205 204 201
233 237 237 230 224 221 215 213 214 213 213 214 215 215 214 215 215 214 214 214 214 215 217 217 215 211 209 206 201 198 198 198 197 199 200 200 200 200 202 206 208 207 206 205 203 202 202 201 199 198 196 192 190 191 193 196 197 197 199 199 197 196 193
226 226 230 231 231 230 223 216 213 214 214 215 216 216 215 214 215 215 215 215 215 215 216 217 215 211 209 206 202 198 197 196 196 197 197 197 197 198 201 204 207 208 207 205 203 202 202 202 201 200 197 192 189 192 196 198 198 198 197 196 196 195 192
235 222 223 226 228 230 230 224 216 212 214 216 216 217 217 215 215 217 217 216 216 215 216 217 215 211 209 207 201 197 195 195 195 196 195 194 193 194 197 200 203 206 207 205 203 203 205 205 204 202 199 195 195 199 201 201 201 203 202 201 202 202 200
252 229 224 227 226 224 228 232 228 218 215 216 215 216 219 218 216 217 218 218 218 216 216 218 216 211 209 207 201 197 196 196 196 194 193 192 192 192 193 196 197 201 205 206 204 204 207 209 208 206 203 203 207 208 204 201 203 206 206 205 205 207 207
260 250 240 238 235 227 223 228 233 229 222 217 212 211 219 224 222 219 218 218 219 217 216 219 218 210 207 206 202 198 198 199 197 194 191 192 193 193 193 194 195 197 203 207 206 206 208 210 210 210 209 210 213 212 207 205 205 206 207 207 207 210 212
267 259 248 242 242 238 230 227 229 231 230 223 210 205 212 221 226 226 222 218 218 218 216 218 218 212 207 206 202 200 200 200 198 195 193 194 194 193 193 194 195 196 202 207 208 207 208 209 209 210 210 210 211 210 208 207 205 204 206 207 209 212 215
271 260 248 239 234 236 235 230 224 225 231 233 223 211 211 214 219 227 229 223 218 216 215 216 216 213 208 205 203 201 200 200 200 198 197 197 196 194 194 195 195 196 202 208 209 206 205 206 207 208 207 206 206 205 204 204 202 202 204 205 206 210 213